Weather observations for the past three days for
Chanute, Chanute Martin Johnson Airport
Imperial (Metric)
Date Time (cdt) Wind (mph) Vis. (mi.) Weather Sky Cond. Temperature (ºF) Relative Humidity Wind Chill (°F) Heat Index (°F) Pressure Precipitation (in)
Air Dwpt 6 hour altimeter (in) sea level (mb) 1 hr 3 hr 6 hr
Max. Min.
17 18:52 S 17 G 35 10.00 Fair CLR 89.1 69.1 93 88 52% 94 29.77 1006.6
17 17:52 S 18 G 31 10.00 Fair CLR 89.1 68 50% 93 29.77 1006.7
17 16:52 S 21 G 30 10.00 A Few Clouds and Breezy FEW050 90 69.1 50% 95 29.78 1007.2
17 15:52 S 17 G 32 10.00 Partly Cloudy SCT050 SCT070 91 70 50% 97 29.8 1007.6
17 14:52 S 16 10.00 Light Rain SCT050 91 70 50% 97 29.82 1008.2
17 13:52 S 18 G 25 10.00 Partly Cloudy SCT070 SCT080 91.9 70 49% 98 29.83 1008.7
17 12:52 S 15 G 26 10.00 A Few Clouds FEW044 90 72 91 77 56% 97 29.84 1009.0
17 11:52 S 16 G 30 10.00 A Few Clouds FEW042 88 71.1 57% 94 29.85 1009.4
17 10:52 S 18 G 28 10.00 A Few Clouds FEW060 87.1 72 61% 94 29.86 1009.9
17 09:52 S 16 G 26 10.00 Fair CLR 84.9 71.1 63% 90 29.88 1010.3
17 08:52 S 16 G 28 10.00 Partly Cloudy SCT055 82.9 70 65% 87 29.88 1010.4
17 07:52 S 13 G 24 10.00 Fair CLR 80.1 69.1 69% 83 29.87 1010.0
17 06:52 S 8 10.00 Fair CLR 77 69.1 80.1 75.9 77% 79 29.84 1009.3
17 05:52 S 10 10.00 Fair CLR 75.9 68 77% 77 29.82 1008.6
17 04:52 S 12 10.00 Fair CLR 77 68 74% 79 29.82 1008.3
17 03:52 S 10 G 21 10.00 Fair CLR 78.1 68 71% 80 29.82 1008.3
17 02:52 S 10 10.00 Fair CLR 78.1 68 71% 80 29.83 1008.7
17 01:52 S 10 10.00 Fair CLR 79 68 69% 81 29.84 1009.2
17 00:52 S 9 10.00 Fair CLR 80.1 66.9 90 79 64% 82 29.86 1009.6
16 23:52 S 8 10.00 Fair CLR 80.1 66.9 64% 82 29.87 1010.0
16 22:52 S 9 10.00 Fair CLR 81 68 65% 84 29.86 1009.8
16 21:52 S 9 10.00 Fair CLR 82.9 66.9 59% 86 29.84 1009.1
16 20:52 S 10 10.00 Fair CLR 84 66 55% 86 29.83 1008.6
16 19:52 S 15 G 22 10.00 Fair CLR 88 66.9 50% 91 29.81 1008.2
16 18:52 S 18 G 28 10.00 Fair CLR 90 68 91.9 89.1 48% 94 29.8 1007.6
16 17:52 S 16 G 30 10.00 Fair CLR 91 69.1 49% 96 29.79 1007.5
16 16:52 S 17 G 29 10.00 Fair CLR 91.9 70 49% 98 29.8 1007.6
16 15:52 S 21 G 33 10.00 A Few Clouds and Breezy FEW045 91 72 54% 99 29.81 1007.8
16 14:52 S 24 G 36 10.00 Fair and Breezy CLR 91 72 54% 99 29.8 1007.7
16 13:52 S 22 G 31 10.00 A Few Clouds and Breezy FEW042 90 73 58% 98 29.82 1008.5
16 12:52 S 17 G 29 10.00 A Few Clouds FEW037 89.1 73.9 89.1 75.9 61% 98 29.86 1009.6
16 11:52 S 16 10.00 A Few Clouds FEW031 87.1 73 63% 95 29.89 1010.6
16 10:52 S 13 10.00 A Few Clouds FEW035 FEW042 84 72 67% 90 29.91 1011.6
16 09:52 S 10 10.00 A Few Clouds FEW043 84 71.1 65% 89 29.93 1012.2
16 08:52 S 9 10.00 Fair CLR 82 71.1 69% 86 29.92 1011.9
16 07:52 SE 5 10.00 Fair CLR 78.1 70 76% 80 29.9 1011.3
16 06:52 Calm 10.00 Fair CLR 75.9 69.1 81 75 79% 77 29.89 1010.7
16 04:52 S 13 10.00 Fair CLR 78.1 68 71% 80 29.84 1008.9
16 03:52 S 13 G 22 10.00 Fair CLR 78.1 68 71% 80 29.82 1008.4
16 02:52 S 13 10.00 Fair CLR 78.1 68 71% 80 29.83 1008.7
16 01:52 S 12 10.00 Fair CLR 79 68 69% 81 29.84 1009.2
16 00:52 S 12 10.00 Fair CLR 81 68 88 81 65% 84 29.85 1009.4
15 23:52 S 9 10.00 Fair CLR 82 68 63% 85 29.85 1009.5
15 22:52 S 12 10.00 Fair CLR 82 68 63% 85 29.84 1009.2
15 21:52 S 9 10.00 Fair CLR 81 69.1 67% 84 29.84 1009.2
15 20:52 S 8 10.00 Fair CLR 82.9 69.1 63% 87 29.83 1008.8
15 19:52 S 10 10.00 Fair CLR 87.1 69.1 55% 91 29.83 1008.8
15 18:52 S 12 10.00 Fair CLR 88 69.1 91.9 88 54% 92 29.85 1009.3
15 17:52 S 12 G 23 10.00 Fair CLR 89.1 66.9 48% 92 29.85 1009.6
15 16:52 S 16 G 26 10.00 Fair CLR 91.9 69.1 47% 97 29.86 1009.8
15 15:52 S 18 G 28 10.00 Fair CLR 91 70 50% 97 29.87 1010.1
15 14:52 S 12 10.00 Partly Cloudy SCT048 91 72 54% 99 29.89 1010.8
15 13:52 S 12 10.00 A Few Clouds FEW048 FEW060 90 72 56% 97 29.91 1011.3
15 12:52 S 15 G 21 10.00 Partly Cloudy SCT050 90 73 90 75.9 58% 98 29.93 1012.0
15 11:52 S 13 G 22 10.00 A Few Clouds FEW047 89.1 71.1 55% 95 29.94 1012.4
15 10:52 S 15 10.00 Fair CLR 88 72 59% 95 29.95 1012.7
15 09:52 S 14 G 22 10.00 Fair CLR 86 72 63% 92 29.96 1013.2
15 08:52 S 10 10.00 Fair CLR 84 73 70% 90 29.97 1013.4
15 07:52 S 8 10.00 Fair CLR 80.1 73 79% 84 29.98 1013.7
15 06:52 S 3 10.00 Fair CLR 75.9 71.1 79 75 85% 76 29.97 1013.6
15 05:52 SE 8 10.00 Fair CLR 75 71.1 88% 75 29.96 1013.2
15 04:52 SE 7 10.00 Fair CLR 75.9 71.1 85% 76 29.96 1013.2
15 03:52 SE 6 10.00 Fair CLR 75.9 71.1 85% 76 29.97 1013.7
15 02:52 E 5 10.00 Mostly Cloudy BKN045 BKN055 BKN070 78.1 71.1 79% 80 29.98 1014.0
15 01:52 SE 6 10.00 Mostly Cloudy BKN046 79 71.1 77% 82 29.97 1013.4
15 00:52 E 7 10.00 Mostly Cloudy BKN050 79 71.1 89.1 79 77% 82 29.98 1013.8
14 23:52 SE 8 10.00 Fair CLR 80.1 71.1 74% 84 29.99 1013.9
14 22:52 E 6 10.00 Fair CLR 81 70 69% 84 29.99 1014.1
14 21:52 E 7 10.00 Fair CLR 82 70 67% 86 29.97 1013.5
14 20:52 E 7 10.00 Fair CLR 84 70 63% 88 29.95 1012.9
14 19:52 E 12 10.00 Fair CLR 87.1 71.1 59% 93 29.96 1013.0
Date Time (cdt) Wind (mph) Vis. (mi.) Weather Sky Cond. Air Dwpt Max. Min. Relative Humidity Wind Chill (°F) Heat Index (°F) altimeter (in) sea level (mb) 1 hr 3 hr 6 hr
6 hour
Temperature (ºF) Pressure Precipitation (in)